When you browse on this site, cookies collect data to enhance your experience and personalize the content and advertising you see.
Visit our Privacy Policy to learn more. By continuing to use the site, you agree to this use of cookies and data.
  • En España
  • Lista de países
  • Para 7 días
  • Temperatura del agua
  • El tiempo en el mapa
  • Informadores
  • user-avatar
    Iniciar sesión

    Tiempo cada hora Benguela

    Hoy, 24 Agosto, Sábado

    Tiempo Temperatura Precipitaciones Viento Presión Humedad
    00:00 +20°C° 0 mm 2 mps 761 mmHg 88%
    01:00 +20°C° 0 mm 3 mps 761 mmHg 88%
    02:00 +20°C° 0 mm 2 mps 761 mmHg 88%
    03:00 +19°C° 0 mm 2 mps 760 mmHg 89%
    04:00 +19°C° 0 mm 1 mps 760 mmHg 89%
    05:00 +20°C° 0 mm 1 mps 761 mmHg 87%
    06:00 +21°C° 0 mm 1 mps 761 mmHg 86%
    07:00 +22°C° 0 mm 1 mps 762 mmHg 84%
    08:00 +24°C° 0 mm 2 mps 762 mmHg 75%
    09:00 +26°C° 0 mm 2 mps 762 mmHg 67%
    10:00 +28°C° 0 mm 3 mps 762 mmHg 59%
    11:00 +29°C° 0 mm 3 mps 761 mmHg 56%
    12:00 +29°C° 0 mm 3 mps 760 mmHg 53%
    13:00 +30°C° 0 mm 3 mps 759 mmHg 50%
    14:00 +29°C° 0 mm 3 mps 759 mmHg 54%
    15:00 +28°C° 0 mm 3 mps 758 mmHg 58%
    16:00 +27°C° 0 mm 3 mps 758 mmHg 62%
    17:00 +25°C° 0 mm 3 mps 758 mmHg 71%
    18:00 +23°C° 0 mm 2 mps 759 mmHg 81%
    19:00 +21°C° 0 mm 2 mps 760 mmHg 90%
    20:00 +22°C° 0 mm 1 mps 760 mmHg 90%
    21:00 +21°C° 0 mm 1 mps 761 mmHg 90%
    22:00 +21°C° 0 mm 1 mps 761 mmHg 89%
    23:00 +21°C° 0 mm 1 mps 761 mmHg 90%

    Mañana, 25 Agosto, Domingo

    Tiempo Temperatura Precipitaciones Viento Presión Humedad
    00:00 +20°C° 0 mm 1 mps 761 mmHg 90%
    01:00 +20°C° 0 mm 1 mps 761 mmHg 91%
    02:00 +19°C° 0 mm 1 mps 760 mmHg 91%
    03:00 +19°C° 0 mm 1 mps 760 mmHg 91%
    04:00 +17°C° 0 mm 0 mps 760 mmHg 91%
    05:00 +20°C° 0 mm 1 mps 760 mmHg 87%
    06:00 +21°C° 0 mm 1 mps 761 mmHg 83%
    07:00 +21°C° 0 mm 2 mps 761 mmHg 79%
    08:00 +24°C° 0 mm 2 mps 761 mmHg 71%
    09:00 +26°C° 0 mm 2 mps 761 mmHg 62%
    10:00 +28°C° 0 mm 3 mps 760 mmHg 54%
    11:00 +29°C° 0 mm 3 mps 760 mmHg 53%
    12:00 +29°C° 0 mm 4 mps 759 mmHg 53%
    13:00 +30°C° 0 mm 4 mps 758 mmHg 52%
    14:00 +29°C° 0 mm 4 mps 758 mmHg 56%
    15:00 +28°C° 0 mm 3 mps 757 mmHg 60%
    16:00 +27°C° 0 mm 3 mps 757 mmHg 64%
    17:00 +25°C° 0 mm 2 mps 758 mmHg 73%
    18:00 +24°C° 0 mm 2 mps 759 mmHg 82%
    19:00 +22°C° 0 mm 1 mps 759 mmHg 91%
    20:00 +22°C° 0 mm 1 mps 760 mmHg 89%
    21:00 +22°C° 0 mm 1 mps 760 mmHg 87%
    22:00 +22°C° 0 mm 1 mps 761 mmHg 85%
    23:00 +22°C° 0 mm 1 mps 761 mmHg 87%

    Pasado mañana, 26 Agosto, Lunes

    Tiempo Temperatura Precipitaciones Viento Presión Humedad
    00:00 +21°C° 0 mm 1 mps 761 mmHg 88%
    01:00 +20°C° 0 mm 1 mps 761 mmHg 90%
    02:00 +20°C° 0 mm 1 mps 761 mmHg 91%
    03:00 +19°C° 0 mm 1 mps 761 mmHg 92%
    04:00 +18°C° 0 mm 1 mps 760 mmHg 93%
    05:00 +19°C° 0 mm 1 mps 761 mmHg 92%
    06:00 +20°C° 0 mm 1 mps 762 mmHg 91%
    07:00 +21°C° 0 mm 1 mps 762 mmHg 89%
    08:00 +22°C° 0 mm 1 mps 762 mmHg 82%
    09:00 +24°C° 0 mm 2 mps 762 mmHg 74%
    10:00 +25°C° 0 mm 2 mps 762 mmHg 67%
    11:00 +26°C° 0 mm 3 mps 761 mmHg 63%
    12:00 +28°C° 0 mm 3 mps 760 mmHg 58%
    13:00 +29°C° 0 mm 4 mps 759 mmHg 54%
    14:00 +28°C° 0 mm 4 mps 759 mmHg 56%
    15:00 +27°C° 0 mm 4 mps 759 mmHg 58%
    16:00 +27°C° 0 mm 3 mps 758 mmHg 60%
    17:00 +25°C° 0 mm 2 mps 759 mmHg 70%
    18:00 +23°C° 0 mm 2 mps 760 mmHg 80%
    19:00 +21°C° 0 mm 1 mps 761 mmHg 90%
    20:00 +21°C° 0 mm 1 mps 761 mmHg 91%
    21:00 +21°C° 0 mm 1 mps 762 mmHg 91%
    22:00 +20°C° 0 mm 1 mps 762 mmHg 92%
    23:00 +20°C° 0 mm 1 mps 762 mmHg 92%

    27 Agosto, Martes

    Tiempo Temperatura Precipitaciones Viento Presión Humedad
    00:00 +19°C° 0 mm 1 mps 762 mmHg 92%
    01:00 +17°C° 0 mm 0 mps 762 mmHg 92%
    02:00 +19°C° 0 mm 1 mps 762 mmHg 92%
    03:00 +19°C° 0 mm 1 mps 762 mmHg 92%
    04:00 +18°C° 0 mm 1 mps 762 mmHg 91%
    05:00 +19°C° 0 mm 1 mps 762 mmHg 87%
    06:00 +20°C° 0 mm 1 mps 762 mmHg 82%
    07:00 +21°C° 0 mm 1 mps 762 mmHg 78%
    08:00 +24°C° 0 mm 2 mps 762 mmHg 67%
    09:00 +26°C° 0 mm 2 mps 762 mmHg 57%
    10:00 +29°C° 0 mm 2 mps 762 mmHg 46%
    11:00 +29°C° 0 mm 3 mps 761 mmHg 46%
    12:00 +29°C° 0 mm 4 mps 760 mmHg 46%
    13:00 +30°C° 0 mm 4 mps 759 mmHg 46%
    14:00 +29°C° 0 mm 4 mps 759 mmHg 48%
    15:00 +29°C° 0 mm 4 mps 759 mmHg 50%
    16:00 +28°C° 0 mm 4 mps 758 mmHg 51%
    17:00 +26°C° 0 mm 4 mps 759 mmHg 62%
    18:00 +24°C° 0 mm 3 mps 759 mmHg 72%
    19:00 +21°C° 0 mm 2 mps 760 mmHg 83%
    20:00 +20°C° 0 mm 2 mps 761 mmHg 86%
    21:00 +20°C° 0 mm 1 mps 761 mmHg 89%
    22:00 +20°C° 0 mm 1 mps 762 mmHg 93%
    23:00 +19°C° 0 mm 1 mps 761 mmHg 93%

    28 Agosto, Miércoles

    Tiempo Temperatura Precipitaciones Viento Presión Humedad
    00:00 +19°C° 0 mm 1 mps 761 mmHg 93%
    01:00 +19°C° 0 mm 1 mps 761 mmHg 93%
    02:00 +19°C° 0 mm 1 mps 761 mmHg 93%
    03:00 +19°C° 0 mm 1 mps 761 mmHg 92%
    04:00 +18°C° 0 mm 1 mps 760 mmHg 91%
    05:00 +19°C° 0 mm 1 mps 761 mmHg 87%
    06:00 +20°C° 0 mm 1 mps 761 mmHg 84%
    07:00 +19°C° 0 mm 0 mps 761 mmHg 80%
    08:00 +23°C° 0 mm 1 mps 761 mmHg 71%
    09:00 +26°C° 0 mm 2 mps 761 mmHg 61%
    10:00 +28°C° 0 mm 2 mps 760 mmHg 52%
    11:00 +28°C° 0 mm 3 mps 760 mmHg 52%
    12:00 +28°C° 0 mm 4 mps 759 mmHg 53%
    13:00 +29°C° 0 mm 5 mps 758 mmHg 54%
    14:00 +28°C° 0 mm 4 mps 758 mmHg 57%
    15:00 +27°C° 0 mm 4 mps 758 mmHg 60%
    16:00 +26°C° 0 mm 4 mps 757 mmHg 64%
    17:00 +25°C° 0 mm 3 mps 758 mmHg 70%
    18:00 +23°C° 0 mm 2 mps 759 mmHg 77%
    19:00 +21°C° 0 mm 2 mps 759 mmHg 83%
    20:00 +22°C° 0 mm 1 mps 760 mmHg 85%
    21:00 +21°C° 0 mm 1 mps 760 mmHg 87%
    22:00 +19°C° 0 mm 0 mps 761 mmHg 88%
    23:00 +18°C° 0 mm 0 mps 760 mmHg 90%

    29 Agosto, Jueves

    Tiempo Temperatura Precipitaciones Viento Presión Humedad
    00:00 +20°C° 0 mm 1 mps 760 mmHg 91%
    01:00 +19°C° 0 mm 1 mps 760 mmHg 93%
    02:00 +19°C° 0 mm 1 mps 760 mmHg 93%
    03:00 +19°C° 0 mm 1 mps 760 mmHg 94%
    04:00 +16°C° 0 mm 0 mps 759 mmHg 94%
    05:00 +19°C° 0 mm 1 mps 760 mmHg 92%
    06:00 +20°C° 0 mm 1 mps 760 mmHg 90%
    07:00 +21°C° 0 mm 1 mps 761 mmHg 88%
    08:00 +21°C° 0 mm 2 mps 761 mmHg 80%
    09:00 +24°C° 0 mm 2 mps 761 mmHg 71%
    10:00 +26°C° 0 mm 2 mps 761 mmHg 63%
    11:00 +27°C° 0 mm 3 mps 760 mmHg 60%
    12:00 +27°C° 0 mm 4 mps 759 mmHg 57%
    13:00 +28°C° 0 mm 4 mps 758 mmHg 55%
    14:00 +27°C° 0 mm 4 mps 758 mmHg 58%
    15:00 +26°C° 0 mm 4 mps 757 mmHg 62%
    16:00 +26°C° 0 mm 3 mps 757 mmHg 65%
    17:00 +24°C° 0 mm 3 mps 758 mmHg 71%
    18:00 +23°C° 0 mm 2 mps 758 mmHg 76%
    19:00 +21°C° 0 mm 2 mps 759 mmHg 82%
    20:00 +22°C° 0 mm 1 mps 759 mmHg 82%
    21:00 +22°C° 0 mm 1 mps 760 mmHg 82%
    22:00 +20°C° 0 mm 0 mps 760 mmHg 82%
    23:00 +19°C° 0 mm 0 mps 760 mmHg 85%
    Mostrar más